RADUGA 17 [-]

Last updated on Wed Jun 28 2023 00:02:57 GMT+0000 (Coordinated Universal Time)

1 16250U 85107A 23177.57829885 -.00000131 00000+0 00000+0 0 9991 2 16250 11.4585 325.9523 0015567 188.0101 129.9632 1.00192707140916

Satellite not in orbit

RADUGA 17 [-]